Home   Weather   Frankfurt   Past weeks

Flag for Germany Past Weather in Frankfurt, Hesse, Germany — Yesterday and Last 2 Weeks

Now
19 °F

Sunny.


Feels Like: 10 °F
Forecast: 18 / 31 °F
Wind: 7 mph from East

Location: Frankfurt-M-Flughafen Airport

Current Time: Jan 20, 2017 at 9:04:26 am

Latest Report: Jan 20, 2017 at 8:20 am


Visibility: 10 mi

Pressure: 30.54 "Hg

Humidity: 73%

Dew Point: 12 °F

Location of FrankfurtLocation

Past Weather in Frankfurt — Graph

°F

Frankfurt Temperature Yesterday

Maximum temperature yesterday: 36 °F (at 3:20 pm)
Minimum temperature yesterday: 21 °F (at 6:50 am)
Average temperature yesterday: 27 °F

High & Low Weather Summary for the Past Weeks

 TemperatureHumidityPressure
High43 °F (Jan 12, 12:50 pm)100% (Jan 7, 10:20 pm)30.77 "Hg (Jan 7, 10:20 pm)
Low12 °F (Jan 7, 1:50 am)48% (Jan 17, 11:50 am)29.15 "Hg (Jan 13, 12:50 am)
Average30 °F79%30.23 "Hg
* Reported Jan 5 7:20 am — Jan 20 7:50 am, Frankfurt, Weather by CustomWeather, © 2017

Note: Actual official high and low records may vary slightly from our data, if they occured in-between our weather recording intervals... More about our weather records

Advertising

Frankfurt Weather History for the Previous 24 Hours

Scroll right to see more
 ConditionsComfort  
Time TempWeatherWind HumidityBarometerVisibility
7:50 am
Fri, Jan 20
19 °FClear.8 mph73%30.54 "Hg10 mi
7:20 am19 °FClear.5 mph68%30.54 "Hg10 mi
6:50 am21 °FClear.7 mph68%30.54 "Hg10 mi
6:20 am19 °FClear.8 mph73%30.54 "Hg10 mi
5:50 am19 °FClear.7 mph73%30.54 "Hg10 mi
5:20 am19 °FClear.7 mph73%30.54 "Hg10 mi
4:50 am19 °FClear.7 mph73%30.54 "Hg10 mi
4:20 am19 °FClear.8 mph73%30.54 "Hg10 mi
3:50 am19 °FClear.8 mph79%30.54 "Hg10 mi
3:20 am21 °FClear.9 mph74%30.54 "Hg10 mi
2:50 am19 °FClear.7 mph73%30.54 "Hg10 mi
2:20 am21 °FClear.6 mph74%30.54 "Hg10 mi
1:50 am21 °FClear.8 mph74%30.54 "Hg10 mi
1:20 am21 °FClear.8 mph74%30.54 "Hg10 mi
12:50 am23 °FClear.7 mph68%30.54 "Hg10 mi
12:20 am23 °FClear.7 mph74%30.57 "Hg10 mi
11:50 pm
Thu, Jan 19
23 °FClear.8 mph74%30.57 "Hg10 mi
11:20 pm23 °FClear.9 mph74%30.57 "Hg10 mi
10:50 pm25 °FClear.8 mph69%30.57 "Hg10 mi
10:20 pm28 °FClear.9 mph59%30.57 "Hg10 mi
9:50 pm28 °FClear.10 mph59%30.57 "Hg10 mi
9:20 pm30 °FClear.10 mph55%30.57 "Hg10 mi
8:50 pm28 °FClear.12 mph64%30.57 "Hg10 mi
8:20 pm28 °FClear.10 mph64%30.57 "Hg10 mi
7:50 pm30 °FClear.10 mph59%30.57 "Hg10 mi
7:20 pm30 °FClear.12 mph59%30.57 "Hg10 mi
6:50 pm30 °FClear.13 mph59%30.57 "Hg10 mi
6:20 pm32 °FClear.13 mph55%30.57 "Hg10 mi
5:50 pm32 °FClear.9 mph55%30.57 "Hg10 mi
5:20 pm32 °FClear.9 mph60%30.57 "Hg10 mi
4:50 pm34 °FSunny.8 mph56%30.57 "Hg10 mi
4:20 pm34 °FSunny.10 mph51%30.57 "Hg10 mi
3:50 pm34 °FPassing clouds.7 mph51%30.57 "HgN/A
3:20 pm36 °FSunny.8 mph48%30.57 "Hg10 mi
2:50 pm34 °FPassing clouds.7 mph51%30.57 "HgN/A
2:20 pm34 °FPassing clouds.9 mph51%30.57 "HgN/A
1:50 pm34 °FPassing clouds.9 mph48%30.57 "HgN/A
1:20 pm34 °FPassing clouds.8 mph48%30.60 "HgN/A
12:50 pm32 °FPassing clouds.8 mph51%30.60 "HgN/A
12:20 pm32 °FSunny.10 mph51%30.60 "Hg10 mi
11:50 am30 °FPassing clouds.9 mph55%30.60 "HgN/A
11:20 am28 °FPassing clouds.7 mph59%30.63 "HgN/A
10:50 am27 °FPassing clouds.8 mph64%30.63 "HgN/A
10:20 am27 °FSunny.9 mph64%30.63 "Hg10 mi
9:50 am23 °FSunny.7 mph74%30.63 "Hg10 mi
9:20 am23 °FPassing clouds.7 mph74%30.63 "HgN/A
Weather by CustomWeather, © 2017

See weather overviewHow to use our weather pages